Location: Newark
(30.1000°N, 109.4667°E)
Time: 12:36:53
(UTC+00:00)

A-11 Canister half - Pass Details

Date: 25 February 2020
Orbit: 1516 x 1683 km, 47.2° (Epoch: 06 April)

Event Time Altitude Azimuth Distance (km) Brightness Sun altitude
Rises 15:03:09 0° 307° (NW) 4,779 12.1 -56.5°
Reaches altitude 10° 15:06:18 10° 304° (NW) 3,770 11.4 -57.0°
Enters shadow 15:08:41 20° 301° (WNW) 3,033 10.8 -57.5°
